Weather History for LHBP - November, 2012

Change the Weather History Date:

Saturday, November 24, 2012

  Actual Average Record
Temperature  
Mean Temperature 42 °F -  
Max Temperature 50 °F 37 °F 55 °F (2003)
Min Temperature 35 °F 25 °F 14 °F (2011)
Degree Days  
Heating Degree Days 22    
Moisture  
Dew Point 44 °F    
Average Humidity 99    
Maximum Humidity 100    
Minimum Humidity 87    
Precipitation  
Precipitation 0.00 in - - ()
Sea Level Pressure  
Sea Level Pressure 30.25 in    
Wind  
Wind Speed 3 mph ()    
Max Wind Speed 6 mph    
Max Gust Speed -    
Visibility 1.2 miles    
Events Fog    
Averages and records for this station are not official NWS values.
T = Trace of Precipitation, MM = Missing Value Source: Averaged Metar Reports

Daily Weather History Graph

Daily Weather History Graph

Search for Another Location

Airport or City:

Trip Planner

Search our weather history database for the weather conditions in past years. The results will help you decide how hot, cold, wet, or windy it might be!

Date:

Astronomy

Nov. 24, 2012 Rise Set
Actual Time 7:00 AM CET 3:58 PM CET
Civil Twilight 6:26 AM CET 4:32 PM CET
Nautical Twilight 5:48 AM CET 5:10 PM CET
Astronomical Twilight 5:11 AM CET 5:47 PM CET
Moon 1:45 PM CET (11/24) 2:46 AM CET (11/24)
Length of Visible Light 10h 06m
Length of Day
8h 57m
Waxing Gibbous, 85% of the Moon is Illuminated
Nov 24
Waxing Gibbous
Nov 28
Full
Dec 6
Last Quarter
Dec 13
New
Dec 20
First Quarter

Hourly Weather History & Observations

Time (CET) Temp. Windchill Dew Point Humidity Pressure Visibility Wind Dir Wind Speed Gust Speed Precip Events Conditions
12:00 AM 44.6 °F - 44.6 °F 100% 30.27 in 0.2 mi Variable 2.3 mph - N/A Fog Fog
12:30 AM 44.6 °F - 44.6 °F 100% 30.27 in 0.1 mi Variable 2.3 mph - N/A Fog Fog
1:00 AM 44.6 °F - 44.6 °F 100% 30.27 in 0.1 mi Variable 2.3 mph - N/A Fog Fog
1:30 AM 44.6 °F - 44.6 °F 100% 30.27 in 0.1 mi Variable 2.3 mph - N/A Fog Fog
2:00 AM 44.6 °F 43.1 °F 44.6 °F 100% 30.27 in 0.1 mi Variable 3.5 mph - N/A Fog Fog
2:30 AM 44.6 °F - 44.6 °F 100% 30.27 in 0.1 mi Variable 1.2 mph - N/A Fog Fog
3:00 AM 44.6 °F - 44.6 °F 100% 30.24 in 0.1 mi Calm Calm - N/A Fog Fog
3:30 AM 44.6 °F - 44.6 °F 100% 30.24 in 0.1 mi Variable 2.3 mph - N/A Fog Fog
4:00 AM 44.6 °F - 44.6 °F 100% 30.24 in 0.1 mi Variable 2.3 mph - N/A Fog Fog
4:30 AM 44.6 °F - 44.6 °F 100% 30.27 in 0.2 mi Variable 1.2 mph - N/A Fog Fog
5:00 AM 44.6 °F - 44.6 °F 100% 30.24 in 0.7 mi Variable 2.3 mph - N/A   Overcast
5:30 AM 46.4 °F - 46.4 °F 100% 30.24 in 0.7 mi Variable 2.3 mph - N/A Fog Patches of Fog
6:00 AM 44.6 °F 43.1 °F 44.6 °F 100% 30.24 in 0.4 mi Variable 3.5 mph - N/A Fog Fog
6:30 AM 44.6 °F - 44.6 °F 100% 30.24 in 0.2 mi Variable 2.3 mph - N/A Fog Fog
7:00 AM 44.6 °F - 44.6 °F 100% 30.27 in 0.2 mi Variable 2.3 mph - N/A Fog Fog
7:30 AM 46.4 °F - 46.4 °F 100% 30.27 in 0.4 mi Variable 1.2 mph - N/A Fog Fog
8:00 AM 46.4 °F - 46.4 °F 100% 30.27 in 0.5 mi Variable 2.3 mph - N/A Fog Fog
8:30 AM 46.4 °F - 46.4 °F 100% 30.27 in 0.6 mi Variable 2.3 mph - N/A Fog Patches of Fog
9:00 AM 46.4 °F 45.2 °F 46.4 °F 100% 30.27 in 0.6 mi Variable 3.5 mph - N/A   Overcast
9:30 AM 46.4 °F 45.2 °F 46.4 °F 100% 30.27 in 0.6 mi Variable 3.5 mph - N/A Fog Patches of Fog
10:00 AM 46.4 °F 44.3 °F 46.4 °F 100% 30.27 in 0.9 mi SSE 4.6 mph - N/A   Overcast
10:30 AM 46.4 °F 44.3 °F 46.4 °F 100% 30.27 in 0.9 mi SE 4.6 mph - N/A   Overcast
11:00 AM 46.4 °F 44.3 °F 46.4 °F 100% 30.27 in 1.2 mi SE 4.6 mph - N/A   Overcast
11:30 AM 48.2 °F - 48.2 °F 100% 30.27 in 1.9 mi South 4.6 mph - N/A   Overcast
12:00 PM 48.2 °F - 48.2 °F 100% 30.27 in 2.2 mi Variable 3.5 mph - N/A   Mostly Cloudy
12:30 PM 50.0 °F - 50.0 °F 100% 30.27 in 2.2 mi Variable 1.2 mph - N/A   Mostly Cloudy
1:00 PM 50.0 °F - 48.2 °F 94% 30.24 in 3.1 mi Variable 1.2 mph - N/A   Mostly Cloudy
1:30 PM 50.0 °F - 46.4 °F 87% 30.24 in 3.1 mi Calm Calm - N/A   Mostly Cloudy
2:00 PM 50.0 °F - 48.2 °F 94% 30.24 in 3.1 mi Variable 1.2 mph - N/A   Mostly Cloudy
2:30 PM 50.0 °F - 46.4 °F 87% 30.24 in 3.7 mi Variable 3.5 mph - N/A   Mostly Cloudy
3:00 PM 48.2 °F - 46.4 °F 93% 30.24 in 3.7 mi ESE 5.8 mph - N/A   Scattered Clouds
3:30 PM 44.6 °F 41.4 °F 42.8 °F 93% 30.24 in 3.1 mi ESE 5.8 mph - N/A   Mist
4:00 PM 42.8 °F 40.1 °F 42.8 °F 100% 30.24 in 3.1 mi East 4.6 mph - N/A   Mist
4:30 PM 42.8 °F 40.1 °F 42.8 °F 100% 30.24 in 2.2 mi SE 4.6 mph - N/A   Partly Cloudy
5:00 PM 44.6 °F 43.1 °F 44.6 °F 100% 30.24 in 2.2 mi Variable 3.5 mph - N/A   Scattered Clouds
5:30 PM 44.6 °F 42.2 °F 44.6 °F 100% 30.24 in 1.9 mi East 4.6 mph - N/A   Partly Cloudy
6:00 PM 42.8 °F 40.1 °F 42.8 °F 100% 30.24 in 1.6 mi East 4.6 mph - N/A   Scattered Clouds
6:30 PM 44.6 °F - 44.6 °F 100% 30.24 in 1.6 mi Variable 2.3 mph - N/A   Mostly Cloudy
7:00 PM 44.6 °F 42.2 °F 44.6 °F 100% 30.24 in 1.6 mi East 4.6 mph - N/A   Overcast
7:30 PM 44.6 °F 41.4 °F 42.8 °F 93% 30.24 in 1.6 mi East 5.8 mph - N/A   Overcast
8:00 PM 41.0 °F 37.1 °F 41.0 °F 100% 30.24 in 1.6 mi East 5.8 mph - N/A   Scattered Clouds
8:30 PM 41.0 °F 39.0 °F 41.0 °F 100% 30.24 in 1.2 mi Variable 3.5 mph - N/A Fog Shallow Fog
9:00 PM 39.2 °F 37.0 °F 39.2 °F 100% 30.24 in 0.7 mi Variable 3.5 mph - N/A Fog Patches of Fog
9:30 PM 39.2 °F 37.0 °F 39.2 °F 100% 30.24 in 0.5 mi Variable 3.5 mph - N/A Fog Fog
10:00 PM 39.2 °F 37.0 °F 39.2 °F 100% 30.24 in 0.5 mi Variable 3.5 mph - N/A Fog Fog
10:30 PM 39.2 °F 37.0 °F 39.2 °F 100% 30.24 in 0.5 mi Variable 3.5 mph - N/A Fog Fog
11:00 PM 35.6 °F 31.7 °F 35.6 °F 100% 30.24 in 0.5 mi East 4.6 mph - N/A Fog Fog
11:30 PM 41.0 °F 38.0 °F 41.0 °F 100% 30.24 in 0.3 mi East 4.6 mph - N/A Fog Fog